Location: Poughquag
(41.6090°N, 73.6820°W)
Time: 11:20:26
(UTC-05:00)

ISS - Visible Passes

Search period start: 21 January 2018 00:00
Search period end: 31 January 2018 00:00
Orbit: 402 x 407 km, 51.6° (Epoch: 22 January)

Date Brightness Start Highest point End Pass type
(mag) Time Alt. Az. Time Alt. Az. Time Alt. Az.
23 Jan -1.6 18:30:01 10° S 18:31:10 14° SSE 18:31:10 14° SSE visible
24 Jan -1.7 19:12:41 10° SW 19:14:08 24° SW 19:14:08 24° SW visible
25 Jan -3.1 18:20:38 10° SSW 18:23:40 37° SE 18:24:19 33° ESE visible
26 Jan -2.1 17:29:02 10° S 17:31:29 20° SE 17:33:55 10° E visible
26 Jan -2.6 19:04:33 10° WSW 19:07:05 41° WNW 19:07:05 41° WNW visible
27 Jan -3.9 18:12:05 10° SW 18:15:20 88° NNW 18:17:05 25° NE visible
27 Jan -0.3 19:49:40 10° WNW 19:49:45 10° WNW 19:49:45 10° WNW visible
28 Jan -2.2 18:56:46 10° W 18:59:36 27° NNW 18:59:40 27° NNW visible
29 Jan -2.9 18:03:59 10° W 18:07:05 41° NNW 18:09:32 15° NE visible
29 Jan -0.5 19:42:08 10° NW 19:42:11 10° NW 19:42:11 10° NW visible
30 Jan -1.7 18:49:09 10° WNW 18:51:33 18° NNW 18:51:59 18° N visible
